Wind_Speed
5 8 10 12 15 17 19 21 22 24 24 26 28 29 31 32 34 35 36 36 37 37 37 37 37 37 36 36 35 35 35 34 34 33 33 32 31 30
2 4 7 9 11 13 15 17 20 22 24 26 27 29 30 31 33 34 36 37 38 39 40 40 40 40 40 40 40 39 39 39 38 37 36 35 34 34
3 3 4 6 8 10 12 14 16 19 21 23 25 27 29 30 32 34 36 38 39 40 41 42 43 43 43 43 43 43 43 42 41 41 40 39 38 38
4 3 3 4 7 9 10 12 14 16 18 20 22 24 26 28 31 33 35 37 39 40 42 43 44 44 44 44 44 45 46 45 45 45 44 44 43 41
5 4 3 4 6 8 9 11 13 15 16 18 21 23 24 26 28 31 33 35 38 40 42 43 44 45 46 47 46 47 48 48 48 49 48 48 47 45
6 5 5 5 6 7 8 10 12 13 15 17 18 21 23 24 26 28 30 32 35 38 41 43 44 45 46 47 48 48 49 50 50 51 51 50 50 49
7 7 7 7 7 8 9 10 11 13 14 16 17 19 21 23 25 27 28 29 31 33 36 39 42 44 45 46 47 48 49 50 51 52 52 52 52 52
9 9 9 9 9 10 10 11 11 13 14 15 16 17 19 20 22 24 26 27 29 31 33 36 38 40 42 43 44 46 48 49 49 51 53 53 53 54
11 11 11 11 12 12 12 13 13 14 14 15 16 17 18 20 21 22 23 25 27 28 30 32 35 37 39 40 41 43 44 45 47 48 50 52 53 53
13 13 13 13 13 14 14 14 15 15 16 16 17 18 19 20 21 22 23 24 26 27 28 29 32 34 36 38 40 41 41 42 44 45 47 48 50 51
14 14 14 14 15 15 15 16 16 16 17 17 18 18 19 20 21 22 23 24 25 26 27 27 29 30 32 35 37 39 40 41 43 44 44 46 47 49
16 16 16 16 16 17 17 17 17 18 18 18 19 19 20 20 21 22 23 24 25 26 26 26 27 28 29 32 34 36 37 39 40 42 43 44 46 47
18 18 18 18 19 19 19 19 19 19 19 20 20 20 21 21 21 22 23 24 25 26 26 26 27 28 28 29 31 33 35 36 37 39 41 43 44 45
20 20 21 21 21 21 21 21 21 21 21 21 22 22 22 22 22 23 23 24 24 25 26 27 27 28 29 29 30 31 33 34 36 37 39 40 41 43
23 23 23 23 23 23 23 23 23 23 23 24 24 24 24 24 24 24 24 25 25 26 26 27 28 28 29 30 30 31 32 33 35 35 36 38 39 40
24 25 25 25 25 25 25 25 25 25 26 26 26 26 26 26 26 26 26 26 26 27 27 28 29 29 30 30 31 31 32 33 33 35 35 36 37 38
26 26 26 27 27 27 27 27 27 27 27 27 27 28 28 28 28 28 28 28 29 29 29 30 30 31 31 31 31 32 33 33 34 34 35 35 36 37
28 28 28 28 28 29 29 29 29 29 29 29 29 29 30 30 30 31 31 31 31 31 31 32 33 32 33 32 33 33 33 33 34 35 35 36 36 37
30 30 30 30 30 30 30 31 31 31 31 31 31 32 32 32 33 33 34 34 34 34 34 34 35 35 35 34 34 35 35 35 35 36 36 36 35 36
32 32 32 32 32 32 32 33 33 33 33 34 34 35 35 35 35 36 36 36 37 37 38 38 38 38 38 37 37 37 38 37 37 37 37 37 36 36
33 33 33 34 34 34 34 34 35 35 36 36 37 37 38 38 38 39 40 40 40 41 41 41 41 42 42 41 40 40 40 41 40 40 39 39 38 38
35 35 35 35 36 36 36 36 37 37 38 39 39 40 41 41 42 42 43 43 44 44 44 44 44 45 45 45 44 44 43 43 43 42 42 42 41 39
36 37 37 37 37 37 38 38 39 39 40 41 42 43 44 45 46 46 47 47 47 47 47 47 48 48 49 49 49 48 48 47 47 46 45 45 44 43
Wind_Direction
248 240 237 236 234 236 236 236 237 238 239 239 240 241 240 240 241 241 240 241 241 240 240 241 241 242 242 242 242 242 243 244 245 245 245 247 248 249
273 248 241 238 235 236 237 239 241 243 243 243 243 244 243 242 243 242 242 243 243 243 242 243 244 244 244 244 244 245 245 246 246 246 246 247 248 250
341 285 254 241 239 239 242 244 246 248 247 246 245 245 245 244 243 244 246 246 246 245 244 245 245 245 246 246 246 246 247 247 247 247 248 248 249 251
352 325 274 250 247 247 249 249 250 251 250 250 248 248 248 247 246 247 248 247 247 247 247 247 247 247 247 247 248 248 247 247 248 249 249 250 250 250
344 334 310 278 261 256 255 255 254 254 254 253 252 250 251 250 250 250 250 250 249 249 248 248 248 248 248 249 249 249 248 248 249 249 250 250 251 250
332 325 311 297 281 273 266 263 261 260 259 258 258 256 256 256 255 255 255 254 253 252 249 249 249 250 250 250 251 251 251 250 250 250 250 250 251 251
314 313 307 298 290 282 276 273 270 268 265 264 263 262 260 260 260 260 260 259 258 257 254 251 251 252 253 253 253 253 253 253 252 250 250 251 251 251
308 306 303 298 292 286 280 278 276 273 269 268 267 266 264 263 264 262 262 262 262 261 260 258 255 254 254 254 254 255 255 254 253 251 250 251 251 252
304 304 302 298 294 290 286 281 278 277 275 273 271 269 267 265 265 264 262 263 264 264 263 262 260 259 258 256 256 257 256 256 255 253 252 251 251 251
304 302 300 297 294 292 289 286 284 281 279 278 276 274 271 268 267 267 265 266 266 265 265 265 264 262 261 260 259 258 257 256 257 256 254 253 252 252
303 301 299 297 294 292 289 288 286 285 283 281 281 279 277 274 272 270 270 269 269 268 267 266 265 264 263 262 261 259 258 258 257 256 257 257 255 254
302 300 298 295 293 292 290 288 287 285 283 282 281 280 279 277 275 273 272 272 272 271 270 269 268 266 265 265 264 262 261 260 258 257 257 257 257 256
302 299 297 295 293 291 290 289 287 286 284 282 281 281 280 279 279 277 275 275 274 272 271 271 270 270 268 266 265 264 263 262 261 259 259 259 258 258
301 299 296 294 293 291 290 288 287 286 285 284 282 281 281 280 279 279 278 277 276 275 273 272 271 271 270 268 266 266 266 265 264 263 262 261 260 259
301 298 296 293 291 290 289 288 287 287 286 286 284 283 283 282 281 280 278 277 277 276 274 273 273 271 271 270 269 268 267 267 266 265 264 263 261 261
301 298 296 293 291 289 288 287 287 287 286 286 285 285 284 284 283 282 281 279 279 277 277 275 274 273 272 272 271 270 269 267 267 267 265 263 262 261
300 298 295 293 291 290 288 287 287 287 287 287 286 286 285 285 284 284 283 283 281 280 279 278 277 274 274 273 272 271 270 269 268 268 266 264 263 262
301 298 296 294 292 290 289 288 287 287 287 287 287 287 286 286 285 284 283 283 282 281 280 279 279 278 276 275 274 272 271 270 270 269 268 266 264 263
300 298 296 295 294 292 290 289 288 287 287 287 287 287 286 286 286 285 285 284 283 282 281 280 279 277 276 275 274 274 273 272 271 270 269 267 265 263
299 297 296 294 294 293 292 290 290 289 288 288 287 287 287 287 286 286 285 284 284 283 282 281 280 279 277 276 274 274 274 272 271 270 269 268 267 265
298 296 295 294 293 292 291 290 290 289 289 288 288 288 288 287 287 287 286 286 285 284 283 282 281 280 279 277 275 274 273 273 272 271 269 269 268 266
298 296 295 294 293 292 291 290 290 290 290 289 289 288 288 288 288 287 287 286 286 285 284 283 281 280 279 278 277 275 273 272 272 271 270 268 267 266
298 296 295 293 292 292 291 291 291 291 291 291 290 290 289 289 288 288 287 287 286 285 284 283 282 281 280 279 277 276 274 272 271 270 269 268 267 265
Height
5776 5777 5777 5778 5779 5781 5783 5786 5788 5790 5793 5795 5797 5799 5802 5805 5808 5811 5814 5817 5820 5823 5826 5829 5832 5835 5838 5840 5843 5845 5848 5850 5852 5855 5857 5859 5860 5862
5775 5774 5775 5775 5776 5778 5779 5781 5783 5785 5786 5788 5791 5793 5795 5797 5800 5803 5806 5809 5811 5814 5818 5820 5823 5826 5829 5832 5834 5837 5840 5842 5845 5847 5849 5851 5853 5855
5774 5773 5773 5773 5774 5775 5776 5777 5778 5779 5781 5782 5784 5786 5788 5790 5792 5795 5797 5799 5802 5805 5807 5810 5813 5816 5819 5821 5824 5827 5830 5833 5835 5838 5840 5842 5844 5846
5774 5772 5771 5771 5772 5772 5773 5773 5774 5775 5776 5776 5778 5779 5781 5782 5784 5786 5788 5790 5792 5794 5797 5799 5802 5805 5808 5811 5813 5816 5819 5822 5825 5828 5830 5833 5835 5837
5773 5772 5771 5770 5770 5770 5770 5770 5770 5770 5771 5771 5772 5773 5774 5775 5776 5777 5778 5780 5782 5784 5786 5788 5791 5793 5796 5799 5801 5804 5807 5810 5813 5816 5819 5821 5824 5826
5772 5771 5770 5769 5768 5767 5767 5767 5766 5766 5766 5766 5766 5767 5767 5767 5768 5768 5769 5770 5771 5773 5775 5776 5779 5781 5784 5786 5789 5791 5794 5797 5800 5803 5806 5809 5812 5814
5771 5769 5768 5767 5766 5765 5764 5763 5763 5762 5761 5761 5761 5761 5761 5761 5761 5761 5761 5761 5762 5763 5764 5766 5768 5770 5771 5773 5775 5778 5780 5783 5786 5789 5792 5796 5799 5801
5769 5767 5766 5765 5763 5762 5761 5760 5759 5758 5757 5756 5755 5755 5754 5754 5753 5753 5753 5753 5754 5755 5755 5755 5756 5758 5759 5761 5763 5765 5767 5769 5771 5774 5778 5781 5785 5787
5766 5765 5763 5762 5760 5759 5758 5756 5755 5754 5752 5751 5750 5749 5748 5748 5747 5747 5746 5746 5746 5746 5746 5746 5746 5747 5748 5749 5751 5752 5754 5756 5758 5760 5763 5767 5770 5773
5763 5761 5760 5758 5757 5755 5754 5752 5751 5749 5748 5746 5745 5744 5743 5742 5741 5740 5739 5739 5738 5737 5737 5737 5736 5737 5737 5738 5739 5741 5742 5744 5745 5748 5750 5752 5755 5758
5759 5758 5756 5754 5753 5751 5749 5748 5746 5744 5743 5741 5740 5739 5737 5736 5735 5734 5733 5732 5731 5730 5730 5730 5728 5728 5728 5728 5729 5730 5731 5732 5734 5736 5738 5740 5741 5743
5756 5754 5752 5750 5748 5746 5744 5743 5741 5739 5738 5736 5735 5733 5732 5730 5729 5728 5726 5725 5724 5723 5722 5722 5720 5720 5720 5719 5719 5719 5720 5721 5722 5724 5725 5727 5728 5729
5751 5749 5747 5745 5743 5741 5739 5737 5735 5734 5732 5730 5728 5727 5725 5724 5722 5721 5719 5718 5717 5715 5714 5713 5712 5711 5711 5711 5710 5710 5710 5710 5711 5712 5713 5715 5715 5716
5746 5744 5742 5740 5738 5736 5734 5732 5730 5728 5726 5724 5722 5721 5719 5717 5716 5714 5712 5711 5709 5708 5707 5706 5705 5703 5703 5702 5702 5701 5700 5700 5700 5701 5702 5703 5703 5704
5741 5738 5736 5734 5732 5730 5728 5726 5724 5722 5720 5718 5716 5714 5712 5710 5708 5707 5705 5704 5702 5700 5699 5698 5697 5696 5695 5694 5693 5692 5691 5691 5690 5690 5690 5691 5691 5692
5734 5732 5730 5727 5725 5723 5721 5719 5717 5715 5713 5711 5709 5707 5705 5703 5701 5699 5697 5696 5694 5692 5691 5689 5688 5687 5686 5685 5684 5683 5682 5681 5680 5679 5679 5680 5680 5680
5728 5725 5723 5720 5718 5716 5714 5712 5710 5708 5705 5703 5701 5699 5697 5695 5693 5691 5689 5687 5686 5684 5682 5680 5679 5678 5677 5676 5674 5673 5672 5671 5670 5670 5669 5669 5669 5669
5720 5717 5715 5712 5710 5708 5705 5703 5701 5699 5697 5695 5693 5691 5689 5687 5685 5683 5681 5679 5677 5675 5673 5671 5669 5668 5667 5666 5665 5663 5662 5661 5660 5659 5659 5659 5659 5658
5712 5709 5706 5704 5701 5699 5697 5694 5692 5690 5688 5686 5684 5682 5680 5678 5675 5673 5671 5669 5667 5665 5663 5661 5659 5657 5656 5655 5654 5652 5651 5650 5649 5649 5648 5647 5647 5647
5703 5700 5697 5695 5692 5690 5687 5685 5683 5680 5678 5676 5674 5672 5669 5667 5665 5662 5660 5658 5656 5653 5651 5649 5647 5645 5644 5644 5643 5642 5639 5638 5638 5637 5637 5636 5636 5636
5693 5690 5688 5685 5683 5680 5678 5675 5673 5670 5668 5665 5663 5660 5658 5655 5653 5650 5648 5645 5643 5640 5638 5636 5634 5632 5630 5629 5630 5629 5628 5626 5625 5624 5624 5624 5624 5625
5683 5681 5678 5675 5672 5670 5667 5664 5662 5659 5657 5654 5651 5648 5646 5643 5640 5637 5634 5631 5629 5626 5624 5622 5620 5617 5616 5614 5614 5614 5614 5612 5611 5611 5611 5611 5611 5612
5673 5670 5667 5664 5661 5659 5656 5653 5650 5647 5644 5641 5638 5635 5632 5629 5625 5622 5619 5616 5613 5611 5609 5607 5604 5602 5600 5598 5598 5597 5597 5596 5596 5596 5597 5597 5597 5599